Hourly Data Report for October 13, 2016

All times are specified in Local Standard Time (LST). Add 1 hour to adjust for Daylight Saving Time where and when it is observed.

FREDERICTON
NEW BRUNSWICK

45°52'08.000" N
66°32'14.000" W
20.70 m
8101505
71700
YFC

Download Data

Hourly Data (October 2016)
Hourly Data Report for October 13, 2016
Temp Definition
°C
Dew Point Temp Definition
°C
Rel Hum Definition
%
Wind Dir Definition
10's deg

Wind Spd Definition
km/h
Visibility Definition
km
Stn Press Definition
kPa
Hmdx Definition


Wind Chill Definition


Weather Definition


TIME
00:00 Legend Double Dagger 5.2 4.2 93 16 9 16.1 102.19     LegendNANA
01:00 Legend Double Dagger 3.8 3.3 96 LegendMM 4 16.1 102.16     LegendNANA
02:00 Legend Double Dagger 4.7 4.4 98   0 9.7 102.06     Fog
03:00 Legend Double Dagger 3.7 3.6 99   0 0.2 102.01     Fog
04:00 Legend Double Dagger 2.9 2.8 99 LegendMM 4 0.4 101.96     Fog
05:00 Legend Double Dagger 3.9 3.8 99   0 0.2 101.93     Fog
06:00 Legend Double Dagger 6.1 6.0 99 11 8 4.8 101.91     Fog
07:00 Legend Double Dagger 5.3 5.2 99 32 5 16.1 101.87     LegendNANA
08:00 Legend Double Dagger 7.7 7.6 99 LegendMM 4 16.1 101.85     LegendNANA
09:00 Legend Double Dagger 10.8 10.1 95   0 16.1 101.82     LegendNANA
10:00 Legend Double Dagger 15.2 10.9 75 18 18 16.1 101.72     LegendNANA
11:00 Legend Double Dagger 16.4 10.5 68 19 18 16.1 101.64     LegendNANA
12:00 Legend Double Dagger 16.5 11.0 70 18 21 16.1 101.53     LegendNANA
13:00 Legend Double Dagger 17.5 11.3 67 17 26 16.1 101.40     LegendNANA
14:00 Legend Double Dagger 17.3 11.5 68 17 18 16.1 101.31     LegendNANA
15:00 Legend Double Dagger 17.0 11.7 71 18 24 16.1 101.27     LegendNANA
16:00 Legend Double Dagger 16.8 11.7 71 18 28 16.1 101.23     LegendNANA
17:00 Legend Double Dagger 16.4 11.7 73 18 17 16.1 101.21     LegendNANA
18:00 Legend Double Dagger 15.5 11.9 79 18 15 16.1 101.18     LegendNANA
19:00 Legend Double Dagger 13.5 11.4 87 20 9 16.1 101.18     LegendNANA
20:00 Legend Double Dagger 12.2 11.1 93 17 5 16.1 101.17     LegendNANA
21:00 Legend Double Dagger 11.8 11.2 96 13 4 16.1 101.12     LegendNANA
22:00 Legend Double Dagger 12.3 11.7 96 18 8 16.1 101.11     LegendNANA
23:00 Legend Double Dagger 13.1 12.3 95 19 11 11.3 101.08     Rain

Notes on Data Quality.

Legend

  • E = Estimated
  • M = Missing
  • NA = Not Available
  • ‡ = Partner data that is not subject to review by the National Climate Archives
Date modified: